Weather in Newcastle

Australia     32°55′16″S   151°45′08″E
temp.,
°C
wind,
m/s
gust,
m/s
humid.,
%
clouds,
%
prec.,
mm/h
press.,
hPa
HPBL,
m
17 may, mon
mon1701:00+9wnw59650 0.0 1020330
04:00+9wnw69700 0.0 1020293
07:00+8wnw58720 0.0 1022248
10:00+13wsw46570 0.0 1023596
13:00+16ssw67570 0.0 10221026
16:00+17s55545 0.0 10231194
19:00+16s34555 0.0 1025945
22:00+16sse2355100 0.1 10271057
18 may, tue
tue1801:00+16sw1257100 0.1 1027559
04:00+14w2269100 0.1 1027443
07:00+14sw2373100 0.3 1029361
10:00+15sw226568 0.6 1029505
13:00+16s21635 0.0 1027673
16:00+17se33650 0.0 1027527
19:00+16e22670 0.0 1028500
22:00+14n34816 0.0 1028232
19 may, wed
wed1901:00+13nnw33832 0.0 1028144
04:00+12nw33853 0.0 1028149
07:00+11nw33866 0.0 1029157
10:00+15nw23680 0.0 1029319
13:00+18nne23510 0.0 1027676
16:00+18ne34600 0.0 1026328
19:00+17nne45760 0.0 1027457
22:00+14n45873 0.0 1028157
20 may, thu
thu2001:00+13nw34862 0.0 1027129
04:00+12nw3484100 0.0 1026139
07:00+12nw3481100 0.0 1027146
10:00+15nw456393 0.0 1027290
13:00+19nw5650100 0.0 1024856
16:00+19nnw4656100 0.0 1024343
19:00+16wnw346297 0.0 1026118
22:00+17ssw3562100 0.0 1027433
21 may, fri
fri2101:00+16sw46655 0.0 1027479
04:00+14wsw56760 0.0 1027315
07:00+16sw477181 0.1 1028640
10:00+17sw456870 0.2 1028471
13:00+18sse677492 1.9 1027626
16:00+18sse897715 4.9 1027852
19:00+18sse9107297 2.3 10281093
22:00+18sse786647 2.4 10281060